Location: Praha
(50.0830°N, 14.4670°E)
Time: 05:28:26
(UTC+02:00)

ISS - Pass Details

Date: 19 May 2021
Orbit: 417 x 422 km, 51.6° (Epoch: 13 June)

Event Time Altitude Azimuth Distance (km) Brightness Sun altitude
Rises 02:06:43 0° 287° (WNW) 2,372 0.1 -18.5°
Reaches altitude 10° 02:08:53 10° 280° (W) 1,506 -1.0 -18.4°
Enters shadow 02:09:12 12° 278° (W) 1,388 -1.2 -18.4°
